Bilbao, Spain

8:41 PM CEST en Octubre 17, 2017 (GMT +0200)
Bilbao

Tiempo Historia de LEBB - Octubre, 2017

Change the Weather History Date:

Viernes, Octubre 13, 2017

  Actual Average Record
Temperature  
Temperatura media 66 ° F -  
Temperatura máxima 75 ° F 65 ° F 80 ° F (2001)
Temperatura mínima 57 ° F 50 ° F 46 ° F (2004)
Cooling Degree Days 1    
Growing Degree Days 16 (Base 50)    
Moisture  
Punto de rocío 59 ° F    
Average Humidity 84    
Maximum Humidity 100    
Minimum Humidity 61    
Precipitación  
Precipitación 0.00 pul - - ()
Presión al nivel del mar  
Presión al nivel del mar 30.23 pul    
Viento  
Velocidad del viento 3 mph ()    
Velocidad máxima del viento 12 mph    
Max Gust Speed -    
Visibilidad 5.1 Millas    
Eventos      
Averages and records for this station are not official NWS values.
T = Trace of Precipitation, MM = Missing Value Source: Averaged Metar Reports

Daily Weather History Graph

Daily Weather History Graph

Search for Another Location

Airport or City:

Trip Planner

Search our weather history database for the weather conditions in past years. The results will help you decide how hot, cold, wet, or windy it might be!

Date:

Astronomía

Oct. 13, 2017 Salida Puesta
Hora real 8:23 AM CEST 7:31 PM CEST
Crepúsculo civil 7:54 AM CEST 8:00 PM CEST
Crepúsculo náutico 7:21 AM CEST 8:33 PM CEST
Crepúsculo astronómico 6:48 AM CEST 9:06 PM CEST
Luna 1:19 AM CEST (10/13) 4:15 PM CEST (10/13)
Horas de luz 12h 06m
Horas de luz
11h 08m
Cuarto menguante, 40% of the Moon is Illuminated
Oct 13
Cuarto menguante
Oct 19
Nueva
Oct 28
Cuarto creciente
Nov 4
Luna llena
Nov 10
Cuarto menguante

Hourly Weather History & Observations

Hora (CEST) Temp. Punto de rocío Humedad Presión Visibilidad Wind Dir Velocidad del viento Velocidad de ráfagas Precip Eventos Condiciones
12:00 AM 58 ° F 57 ° F 94% 30.25 pul - Este 4.6 mph - -  
12:00 AM 59.0 ° F 57.2 ° F 94% 30.24 pul 3.7 mi ESE 3.5 mph - N/A   Parcialmente nublado
12:30 AM 57.2 ° F 57.2 ° F 100% 30.24 pul 3.1 mi ESE 2.3 mph - N/A   Parcialmente nublado
1:00 AM 57 ° F 57 ° F 99% 30.24 pul - Este 3.5 mph - -  
1:00 AM 59.0 ° F 57.2 ° F 94% 30.24 pul 3.7 mi Variable 2.3 mph - N/A   Parcialmente nublado
1:30 AM 57.2 ° F 57.2 ° F 100% 30.21 pul 3.7 mi Este 2.3 mph - N/A   Desconocido
2:00 AM 57 ° F 57 ° F 99% 30.23 pul - Este 4.6 mph - -  
2:00 AM 59.0 ° F 57.2 ° F 94% 30.21 pul 4.3 mi Este 3.5 mph - N/A   Parcialmente nublado
2:30 AM 57.2 ° F 57.2 ° F 100% 30.21 pul 4.3 mi Variable 2.3 mph - N/A   Parcialmente nublado
3:00 AM 57 ° F 57 ° F 99% 30.22 pul - Este 5.8 mph - -  
3:00 AM 59.0 ° F 57.2 ° F 94% 30.21 pul 4.3 mi Este 5.8 mph - N/A   Desconocido
3:30 AM 57.2 ° F 57.2 ° F 100% 30.21 pul 5.0 mi ESE 3.5 mph - N/A   Desconocido
4:00 AM 57 ° F 56 ° F 96% 30.22 pul - Este 1.2 mph - -  
4:00 AM 59.0 ° F 57.2 ° F 94% 30.21 pul 5.6 mi Variable 1.2 mph - N/A   Desconocido
4:30 AM 59.0 ° F 55.4 ° F 88% 30.21 pul 5.6 mi Variable 2.3 mph - N/A   Desconocido
5:00 AM 58 ° F 56 ° F 92% 30.21 pul 9 mi NE 2.3 mph - -   Nubes dispersas
5:00 AM 59.0 ° F 55.4 ° F 88% 30.18 pul - Variable 2.3 mph - N/A   Despejado
5:30 AM 59.0 ° F 55.4 ° F 88% 30.18 pul 6.2 mi Variable 1.2 mph - N/A   Parcialmente nublado
6:00 AM 58 ° F 56 ° F 89% 30.21 pul - ENE 2.3 mph - -  
6:00 AM 59.0 ° F 55.4 ° F 88% 30.18 pul 6.2 mi Variable 2.3 mph - N/A   Parcialmente nublado
6:30 AM 60.8 ° F 55.4 ° F 82% 30.18 pul 6.2 mi Variable 1.2 mph - N/A   Parcialmente nublado
7:00 AM 60 ° F 56 ° F 82% 30.21 pul - NE 2.3 mph - -  
7:00 AM 60.8 ° F 55.4 ° F 82% 30.21 pul 6.2 mi Variable 1.2 mph - N/A   Parcialmente nublado
7:30 AM 59.0 ° F 55.4 ° F 88% 30.21 pul 6.2 mi Variable 2.3 mph - N/A   Parcialmente nublado
8:00 AM 58 ° F 55 ° F 87% 30.22 pul 9 mi Sin viento Sin viento - -   Nubes dispersas
8:00 AM 59.0 ° F 55.4 ° F 88% 30.21 pul 6.2 mi Sin viento Sin viento - N/A   Parcialmente nublado
8:30 AM 59.0 ° F 55.4 ° F 88% 30.21 pul 6.2 mi Variable 1.2 mph - N/A   Parcialmente nublado
9:00 AM 57 ° F 55 ° F 90% 30.23 pul - Este 2.3 mph - -  
9:00 AM 57.2 ° F 53.6 ° F 88% 30.21 pul 6.2 mi Variable 1.2 mph - N/A   Parcialmente nublado
9:30 AM 59.0 ° F 55.4 ° F 88% 30.21 pul 6.2 mi Sin viento Sin viento - N/A   Parcialmente nublado
10:00 AM 59.0 ° F 57.2 ° F 94% 30.24 pul 6.2 mi Sin viento Sin viento - N/A   Parcialmente nublado
10:30 AM 62.6 ° F 57.2 ° F 82% 30.24 pul 6.2 mi Variable 1.2 mph - N/A   Parcialmente nublado
11:00 AM 66 ° F 58 ° F 69% 30.25 pul 12 mi Oeste 1.2 mph - -   Nubes dispersas
11:00 AM 66.2 ° F 59.0 ° F 78% 30.24 pul - Sin viento Sin viento - N/A   Despejado
11:30 AM 69.8 ° F 59.0 ° F 68% 30.24 pul - Sin viento Sin viento - N/A   Despejado
12:00 PM 73.4 ° F 59.0 ° F 61% 30.24 pul - Sin viento Sin viento - N/A   Despejado
12:30 PM 73.4 ° F 62.6 ° F 69% 30.24 pul - ONO 5.8 mph - N/A   Despejado
1:00 PM 74 ° F 64 ° F 62% 30.25 pul - ONO 8.1 mph - -  
1:00 PM 71.6 ° F 64.4 ° F 78% 30.24 pul - Oeste 6.9 mph - N/A   Despejado
1:30 PM 71.6 ° F 64.4 ° F 78% 30.24 pul - Oeste 8.1 mph - N/A   Despejado
2:00 PM 73 ° F 64 ° F 65% 30.23 pul 5 mi ONO 9.2 mph - -   Neblina
2:00 PM 71.6 ° F 64.4 ° F 78% 30.21 pul 5.0 mi ONO 9.2 mph - N/A   Desconocido
2:30 PM 71.6 ° F 62.6 ° F 73% 30.21 pul 5.0 mi ONO 10.4 mph - N/A   Desconocido
3:00 PM 72 ° F 64 ° F 69% 30.22 pul - ONO 11.5 mph - -  
3:00 PM 71.6 ° F 64.4 ° F 78% 30.21 pul 5.0 mi ONO 10.4 mph - N/A   Desconocido
3:30 PM 69.8 ° F 64.4 ° F 83% 30.21 pul 5.0 mi NO 10.4 mph - N/A   Parcialmente nublado
4:00 PM 71 ° F 63 ° F 68% 30.24 pul - NO 11.5 mph - -  
4:00 PM 69.8 ° F 62.6 ° F 78% 30.24 pul 4.3 mi NO 11.5 mph - N/A   Nubes dispersas
4:04 PM 69.8 ° F 64.4 ° F 83% 30.24 pul 4.3 mi NO 11.5 mph - N/A   Muy nublado
4:30 PM 69.8 ° F 62.6 ° F 78% 30.24 pul 4.3 mi NO 11.5 mph - N/A   Muy nublado
5:00 PM 68 ° F 62 ° F 76% 30.25 pul 4 mi NO 9.2 mph - -   Neblina
5:00 PM 68.0 ° F 62.6 ° F 83% 30.24 pul 4.3 mi NO 9.2 mph - N/A   Muy nublado
5:30 PM 68.0 ° F 62.6 ° F 83% 30.24 pul 4.3 mi NNO 8.1 mph - N/A   Muy nublado
6:00 PM 67 ° F 62 ° F 78% 30.25 pul - NNO 5.8 mph - -  
6:00 PM 68.0 ° F 62.6 ° F 83% 30.24 pul 4.3 mi NNO 5.8 mph - N/A   Muy nublado
6:30 PM 68.0 ° F 62.6 ° F 83% 30.24 pul 4.3 mi NNO 4.6 mph - N/A   Muy nublado
7:00 PM 67 ° F 61 ° F 76% 30.26 pul - NNO 6.9 mph - -  
7:00 PM 66.2 ° F 62.6 ° F 88% 30.24 pul 4.3 mi NNO 5.8 mph - N/A   Muy nublado
7:30 PM 66.2 ° F 60.8 ° F 83% 30.27 pul 4.3 mi Variable 2.3 mph - N/A   Nublado
8:00 PM 65 ° F 61 ° F 82% 30.27 pul 4 mi NNO 2.3 mph - -   Neblina
8:00 PM 66.2 ° F 60.8 ° F 83% 30.27 pul 4.3 mi Variable 2.3 mph - N/A   Nublado
8:30 PM 66.2 ° F 60.8 ° F 83% 30.27 pul 4.3 mi Variable 1.2 mph - N/A   Nublado
9:00 PM 64.4 ° F 60.8 ° F 88% 30.27 pul 4.3 mi Variable 1.2 mph - N/A   Nublado
9:30 PM 64.4 ° F 60.8 ° F 88% 30.27 pul 4.3 mi Sin viento Sin viento - N/A   Nublado
10:00 PM 65 ° F 61 ° F 81% 30.29 pul - Sin viento Sin viento - -  
10:00 PM 66.2 ° F 60.8 ° F 83% 30.27 pul 4.3 mi Sin viento Sin viento - N/A   Nublado
10:30 PM 64.4 ° F 60.8 ° F 88% 30.27 pul 4.3 mi Sin viento Sin viento - N/A   Nublado
11:00 PM 65 ° F 61 ° F 81% 30.29 pul 4 mi Sin viento Sin viento - -   Neblina
11:00 PM 64.4 ° F 60.8 ° F 88% 30.27 pul 4.3 mi Sin viento Sin viento - N/A   Nublado
11:30 PM 64.4 ° F 60.8 ° F 88% 30.27 pul 4.3 mi Variable 1.2 mph - N/A   Nublado